Location: Tel Aviv
(32.0670°N, 34.7670°E)
Time: 02:15:12
(UTC+02:00)

Envisat - Pass Details

Date: 04 December 2021
Orbit: 764 x 766 km, 98.2° (Epoch: 26 January)

Event Time Altitude Azimuth Distance (km) Brightness Sun altitude
Rises 04:15:10 0° 18° (NNE) 3,235 6.3 -27.1°
Reaches altitude 10° 04:17:32 10° 23° (NNE) 2,305 5.6 -26.6°
Maximum altitude 04:22:30 54° 100° (E) 926 3.7 -25.6°
Drops below altitude 10° 04:27:26 10° 177° (S) 2,291 5.6 -24.6°
Sets 04:29:47 0° 182° (S) 3,213 6.3 -24.1°
